Overview Statistics Trail Chart Weather Telemetry Raw packets
 

This is the latest recevied weather packets stored in our database for station/object KB1WCR. If no packets are shown the sender has not sent any weather packets the latest 10 day(s).

<< 97 98 99 100 101 102 103 >>
Time Temp. Humidity Pressure Rain* Wind** Luminosity Snow
1787697637 22.78° C 76% 1012.1 hPa 0 mm - 30 W/m² -
1787697332 23.33° C 73% 1011.7 hPa 0 mm - 34 W/m² -
1787697028 23.33° C 74% 1011.8 hPa 0 mm - 35 W/m² -
1787696723 23.89° C 72% 1011.9 hPa 0 mm - 35 W/m² -
1787696419 23.89° C 70% 1012 hPa 0 mm - 37 W/m² -
1787696115 25° C 68% 1011.9 hPa 0 mm - 39 W/m² -
1787695813 24.44° C 68% 1012 hPa 0 mm - 52 W/m² -
1787695509 23.89° C 69% 1011.9 hPa 0 mm - 87 W/m² -
1787695205 25° C 67% 1011.8 hPa 0 mm - 48 W/m² -
1787694904 25.56° C 64% 1011.9 hPa 0 mm - 63 W/m² -
1787694598 26.11° C 62% 1011.8 hPa 0 mm - 80 W/m² -
1787694293 26.11° C 63% 1011.7 hPa 0 mm - 154 W/m² -
1787693989 26.11° C 61% 1011.7 hPa 0 mm - 150 W/m² -
1787693684 26.11° C 62% 1011.4 hPa 0 mm - 136 W/m² -
1787693380 26.11° C 62% 1011.5 hPa 0 mm - 181 W/m² -
1787693076 26.67° C 62% 1011.5 hPa 0 mm - 54 W/m² -
1787692772 26.11° C 62% 1011.5 hPa 0 mm - 212 W/m² -
1787692472 26.11° C 62% 1011.7 hPa 0 mm - 212 W/m² -
1787692166 26.11° C 62% 1011.5 hPa 0 mm - 262 W/m² -
1787691865 25.56° C 64% 1011.6 hPa 0 mm - 323 W/m² -
1787691564 26.11° C 62% 1011.4 hPa 0 mm - 360 W/m² -
1787691263 26.11° C 64% 1011.5 hPa 0 mm - 387 W/m² -
1787690958 26.11° C 64% 1011.7 hPa 0 mm - 422 W/m² -
1787690653 25.56° C 63% 1011.6 hPa 0 mm - 237 W/m² -
1787690348 25° C 64% 1011.8 hPa 0 mm - 174 W/m² -

* Rain latest hour (hover to see other rain measurements)
** Current wind speed in m/s (hover to see current wind gust speed)